Location: Newark
(33.6333°S, 78.8500°W)
Time: 11:40:48
(UTC+00:00)

Tiros 1 despin weight - Pass Details

Date: 28 September 2019
Orbit: 594 x 643 km, 48.2° (Epoch: 15 October)

Event Time Altitude Azimuth Distance (km) Brightness Sun altitude
Rises 10:36:50 0° 254° (WSW) 2,945 - -5.0°
Exits shadow 10:38:30 - 264° (W) 2,461 ? -4.6°
Reaches altitude 10° 10:40:27 10° 282° (WNW) 2,034 ? -4.2°
Maximum altitude 10:42:27 13° 308° (NW) 1,860 ? -3.8°
Drops below altitude 10° 10:44:28 10° 333° (NNW) 2,029 ? -3.4°
Sets 10:48:04 0° 2° (N) 2,930 ? -2.7°
